,,PA_Meas_PMT16A,,PR_Meas_QMR101_102,,RH_Meas_QMH101,,SR_Meas_QMS101,,TA_Meas_QMH101,,GenWind,,GenWind,
time,status,PA,status,PR,status,RH,status,SR,status,TA,status,DirAvg,status,SpdAvg,
2016-01-20, 07:49:04,VALID,918.483,VALID,0,VALID,104,VALID,80.9032,VALID,19.5858,VALID,108,VALID,2.36094,
2016-01-20, 07:50:04,VALID,918.498,VALID,0,VALID,104,VALID,83.6967,VALID,19.6263,VALID,128,VALID,2.14023,
2016-01-20, 07:51:04,VALID,918.505,VALID,0,VALID,104,VALID,86.4901,VALID,19.6458,VALID,133,VALID,2.52695,
2016-01-20, 07:52:04,VALID,918.509,VALID,0,VALID,103.999,VALID,89.6059,VALID,19.6848,VALID,146,VALID,1.39648,
2016-01-20, 07:53:04,VALID,918.546,VALID,0,VALID,103.846,VALID,92.9366,VALID,19.7238,VALID,132,VALID,2.29688,
2016-01-20, 07:54:04,VALID,918.577,VALID,0,VALID,103.572,VALID,96.3747,VALID,19.7238,VALID,126,VALID,3.00703,
2016-01-20, 07:55:04,VALID,918.614,VALID,0,VALID,103.442,VALID,99.7054,VALID,19.7823,VALID,141,VALID,2.53281,
2016-01-20, 07:56:04,VALID,918.633,VALID,0,VALID,103.221,VALID,102.821,VALID,19.8018,VALID,136,VALID,2.31367,
2016-01-20, 07:57:04,VALID,918.644,VALID,0,VALID,103.152,VALID,105.507,VALID,19.8423,VALID,134,VALID,2.44648,
2016-01-20, 07:58:04,VALID,918.68,VALID,0,VALID,103.13,VALID,108.301,VALID,19.8603,VALID,135,VALID,2.77109,
2016-01-20, 07:59:04,VALID,918.662,VALID,0,VALID,103.023,VALID,110.664,VALID,19.8813,VALID,135,VALID,2.53008,
2016-01-20, 08:00:04,VALID,918.661,VALID,0,VALID,103.137,VALID,112.598,VALID,19.8798,VALID,146,VALID,2.08359,
2016-01-20, 08:01:04,VALID,918.635,VALID,0,VALID,102.588,VALID,114.317,VALID,19.9383,VALID,140,VALID,2.18789,
2016-01-20, 08:02:04,VALID,918.639,VALID,0,VALID,102.848,VALID,115.929,VALID,19.9773,VALID,145,VALID,2.04297,
2016-01-20, 08:03:04,VALID,918.674,VALID,0,VALID,102.154,VALID,117.218,VALID,20.0163,VALID,143,VALID,2.14219,
2016-01-20, 08:04:04,VALID,918.674,VALID,0,VALID,102.314,VALID,119.582,VALID,20.0749,VALID,146,VALID,2.09844,
2016-01-20, 08:05:04,VALID,918.667,VALID,0,VALID,102.1,VALID,123.235,VALID,20.0944,VALID,171,VALID,2.09648,
2016-01-20, 08:06:04,VALID,918.646,VALID,0,VALID,102.26,VALID,129.037,VALID,20.1334,VALID,131,VALID,1.79688,
2016-01-20, 08:07:04,VALID,918.677,VALID,0,VALID,102.131,VALID,136.45,VALID,20.1334,VALID,139,VALID,2.41992,
2016-01-20, 08:08:04,VALID,918.633,VALID,0,VALID,102.184,VALID,145.368,VALID,20.1529,VALID,162,VALID,1.63125,
2016-01-20, 08:09:04,VALID,918.639,VALID,0,VALID,102.443,VALID,156.327,VALID,20.1724,VALID,156,VALID,1.85586,
2016-01-20, 08:10:04,VALID,918.632,VALID,0,VALID,102.139,VALID,167.178,VALID,20.1724,VALID,150,VALID,2.02461,
2016-01-20, 08:11:04,VALID,918.694,VALID,0,VALID,102.398,VALID,177.708,VALID,20.2309,VALID,137,VALID,1.96406,
2016-01-20, 08:12:04,VALID,918.678,VALID,0,VALID,102.07,VALID,189.204,VALID,20.2699,VALID,144,VALID,1.7707,
2016-01-20, 08:13:04,VALID,918.694,VALID,0,VALID,101.994,VALID,211.552,VALID,20.3089,VALID,148,VALID,1.81758,
2016-01-20, 08:14:04,VALID,918.712,VALID,0,VALID,102.169,VALID,245.073,VALID,20.3674,VALID,140,VALID,1.87539,
2016-01-20, 08:15:04,VALID,918.735,VALID,0,VALID,101.757,VALID,295.248,VALID,20.4244,VALID,142,VALID,1.66562,
2016-01-20, 08:16:04,VALID,918.742,VALID,0,VALID,102.024,VALID,316.629,VALID,20.5609,VALID,139,VALID,1.27539,
2016-01-20, 08:17:04,VALID,918.763,VALID,0,VALID,101.841,VALID,239.916,VALID,20.717,VALID,139,VALID,1.67852,
2016-01-20, 08:18:04,VALID,918.743,VALID,0,VALID,99.6838,VALID,239.164,VALID,20.795,VALID,147,VALID,1.90547,
2016-01-20, 08:19:04,VALID,918.744,VALID,0,VALID,99.699,VALID,234.007,VALID,20.873,VALID,137,VALID,1.88086,
2016-01-20, 08:20:04,VALID,918.741,VALID,0,VALID,98.6851,VALID,227.883,VALID,20.891,VALID,156,VALID,1.09531,
2016-01-20, 08:21:04,VALID,918.745,VALID,0,VALID,99.2188,VALID,222.726,VALID,20.9495,VALID,165,VALID,1.39844,
2016-01-20, 08:22:04,VALID,918.758,VALID,0,VALID,95.7577,VALID,211.981,VALID,20.9885,VALID,135,VALID,2.11719,
2016-01-20, 08:23:04,VALID,918.789,VALID,0,VALID,96.7335,VALID,196.51,VALID,21.0486,VALID,132,VALID,1.65977,
2016-01-20, 08:24:04,VALID,918.788,VALID,0,VALID,91.3895,VALID,182.865,VALID,21.0291,VALID,145,VALID,1.79023,
2016-01-20, 08:25:04,VALID,918.763,VALID,0,VALID,95.5748,VALID,170.831,VALID,21.0486,VALID,164,VALID,1.31836,
2016-01-20, 08:26:04,VALID,918.832,VALID,0,VALID,95.1097,VALID,160.732,VALID,21.047,VALID,149,VALID,1.9207,
2016-01-20, 08:27:04,VALID,918.825,VALID,0,VALID,96.6192,VALID,153.856,VALID,21.0275,VALID,139,VALID,2.07656,
2016-01-20, 08:28:04,VALID,918.823,VALID,0,VALID,94.0348,VALID,148.806,VALID,21.0291,VALID,158,VALID,1.83203,
2016-01-20, 08:29:04,VALID,918.772,VALID,0,VALID,94.3855,VALID,144.401,VALID,21.0275,VALID,156,VALID,1.19453,
2016-01-20, 08:30:04,VALID,918.801,VALID,0,VALID,98.5555,VALID,140.533,VALID,21.0665,VALID,159,VALID,0.678516,
2016-01-20, 08:31:04,VALID,918.807,VALID,0,VALID,98.0066,VALID,138.169,VALID,21.1055,VALID,153,VALID,1.19961,
2016-01-20, 08:32:04,VALID,918.828,VALID,0,VALID,97.1452,VALID,138.277,VALID,21.0665,VALID,144,VALID,1.56953,
2016-01-20, 08:33:04,VALID,918.838,VALID,0,VALID,97.0232,VALID,141.393,VALID,21.047,VALID,147,VALID,1.24531,
2016-01-20, 08:34:04,VALID,918.85,VALID,0,VALID,98.6699,VALID,147.087,VALID,21.0876,VALID,177,VALID,1.0957,
2016-01-20, 08:35:04,VALID,918.831,VALID,0,VALID,98.9138,VALID,155.467,VALID,21.1461,VALID,160,VALID,0.711328,
2016-01-20, 08:36:04,VALID,918.854,VALID,0,VALID,97.3586,VALID,166.856,VALID,21.1852,VALID,147,VALID,0.733594,
2016-01-20, 08:37:04,VALID,918.838,VALID,0,VALID,88.8509,VALID,178.782,VALID,21.2421,VALID,183,VALID,1.34883,
2016-01-20, 08:38:04,VALID,918.866,VALID,0,VALID,93.8138,VALID,189.096,VALID,21.3412,VALID,151,VALID,0.889844,
2016-01-20, 08:39:04,VALID,918.868,VALID,0,VALID,91.0922,VALID,201.13,VALID,21.3998,VALID,149,VALID,1.64844,
2016-01-20, 08:40:04,VALID,918.884,VALID,0,VALID,91.8164,VALID,216.709,VALID,21.3998,VALID,148,VALID,1.49375,
2016-01-20, 08:41:04,VALID,918.863,VALID,0,VALID,94.6828,VALID,242.065,VALID,21.4372,VALID,170,VALID,1.33359,
2016-01-20, 08:42:04,VALID,918.839,VALID,0,VALID,91.9384,VALID,228.85,VALID,21.4941,VALID,150,VALID,0.0289063,
2016-01-20, 08:43:04,VALID,918.862,VALID,0,VALID,90.5738,VALID,237.982,VALID,21.5542,VALID,177,VALID,0.000390625,
2016-01-20, 08:44:04,VALID,918.876,VALID,0,VALID,86.9222,VALID,245.503,VALID,21.5916,VALID,185,VALID,2.07852,
2016-01-20, 08:45:04,VALID,918.854,VALID,0,VALID,93.9434,VALID,252.379,VALID,21.6501,VALID,152,VALID,1.00312,
2016-01-20, 08:46:04,VALID,918.86,VALID,0,VALID,90.0859,VALID,255.817,VALID,21.6908,VALID,176,VALID,1.82656,
2016-01-20, 08:47:04,VALID,918.861,VALID,0,VALID,90.711,VALID,257.214,VALID,21.7282,VALID,188,VALID,0.678906,
2016-01-20, 08:48:04,VALID,918.867,VALID,0,VALID,87.9209,VALID,258.718,VALID,21.7672,VALID,139,VALID,0.819531,
2016-01-20, 08:49:04,VALID,918.85,VALID,0,VALID,86.3504,VALID,259.041,VALID,21.829,VALID,152,VALID,1.46797,
2016-01-20, 08:50:04,VALID,918.925,VALID,0,VALID,88.4545,VALID,259.363,VALID,21.8876,VALID,171,VALID,1.3418,
2016-01-20, 08:51:04,VALID,918.907,VALID,0,VALID,84.3074,VALID,274.727,VALID,21.8664,VALID,174,VALID,2.34883,
2016-01-20, 08:52:04,VALID,918.925,VALID,0,VALID,86.3733,VALID,332.53,VALID,21.9054,VALID,198,VALID,0.900391,
2016-01-20, 08:53:04,VALID,918.918,VALID,0,VALID,91.2523,VALID,271.504,VALID,22.0225,VALID,200,VALID,0.123828,
2016-01-20, 08:54:04,VALID,918.959,VALID,0,VALID,86.8078,VALID,263.983,VALID,22.1201,VALID,200,VALID,0.482422,
2016-01-20, 08:55:04,VALID,918.92,VALID,0,VALID,87.2957,VALID,261.619,VALID,22.2567,VALID,193,VALID,0.432422,
2016-01-20, 08:56:04,VALID,918.932,VALID,0,VALID,85.9616,VALID,259.578,VALID,22.3737,VALID,196,VALID,0.492969,
2016-01-20, 08:57:04,VALID,918.923,VALID,0,VALID,85.1078,VALID,257.429,VALID,22.4518,VALID,136,VALID,0.495703,
2016-01-20, 08:58:04,VALID,918.903,VALID,0,VALID,82.8437,VALID,253.346,VALID,22.5103,VALID,173,VALID,1.275,
2016-01-20, 08:59:04,VALID,918.914,VALID,0,VALID,81.4791,VALID,250.338,VALID,22.4501,VALID,158,VALID,0.46875,
2016-01-20, 09:00:04,VALID,918.93,VALID,0,VALID,82.3558,VALID,248.619,VALID,22.4111,VALID,146,VALID,1.01719,
2016-01-20, 09:01:04,VALID,918.946,VALID,0,VALID,82.3405,VALID,246.792,VALID,22.4501,VALID,176,VALID,0,
2016-01-20, 09:02:04,VALID,918.965,VALID,0,VALID,81.136,VALID,245.073,VALID,22.4518,VALID,149,VALID,1.38281,
2016-01-20, 09:03:04,VALID,918.987,VALID,0,VALID,81.9365,VALID,244.214,VALID,22.4696,VALID,147,VALID,1.21016,
2016-01-20, 09:04:04,VALID,918.988,VALID,0,VALID,81.8069,VALID,242.495,VALID,22.4518,VALID,146,VALID,0.0121094,
2016-01-20, 09:05:04,VALID,919.016,VALID,0,VALID,81.2732,VALID,241.205,VALID,22.4696,VALID,138,VALID,0,
2016-01-20, 09:06:04,VALID,919.03,VALID,0,VALID,82.1652,VALID,239.486,VALID,22.4306,VALID,140,VALID,0,
2016-01-20, 09:07:04,VALID,919.018,VALID,0,VALID,83.7966,VALID,237.23,VALID,22.5299,VALID,203,VALID,0,
2016-01-20, 09:08:04,VALID,919.02,VALID,0,VALID,83.1715,VALID,235.618,VALID,22.6079,VALID,174,VALID,0,
2016-01-20, 09:09:04,VALID,919.008,VALID,0,VALID,81.0903,VALID,233.792,VALID,22.6257,VALID,178,VALID,0,
2016-01-20, 09:10:04,VALID,918.984,VALID,0,VALID,82.3634,VALID,231.858,VALID,22.7428,VALID,177,VALID,0,
2016-01-20, 09:11:04,VALID,918.974,VALID,0,VALID,81.3571,VALID,229.494,VALID,22.8014,VALID,183,VALID,0,
2016-01-20, 09:12:04,VALID,918.962,VALID,0,VALID,80.8006,VALID,226.486,VALID,22.8404,VALID,178,VALID,0,
2016-01-20, 09:13:04,VALID,918.964,VALID,0,VALID,81.5858,VALID,223.692,VALID,22.8599,VALID,177,VALID,0,
2016-01-20, 09:14:04,VALID,918.977,VALID,0,VALID,81.3647,VALID,221.651,VALID,22.8599,VALID,170,VALID,0,
2016-01-20, 09:15:04,VALID,919.004,VALID,0,VALID,81.1665,VALID,220.899,VALID,22.938,VALID,164,VALID,0,
2016-01-20, 09:16:04,VALID,919.001,VALID,0,VALID,80.8006,VALID,221.329,VALID,22.9965,VALID,186,VALID,0,
2016-01-20, 09:17:04,VALID,919.056,VALID,0,VALID,81.1208,VALID,222.081,VALID,23.0533,VALID,175,VALID,0,
2016-01-20, 09:18:04,VALID,919.035,VALID,0,VALID,77.7131,VALID,222.726,VALID,22.977,VALID,154,VALID,0.485938,
2016-01-20, 09:19:04,VALID,919.057,VALID,0,VALID,80.4957,VALID,222.511,VALID,22.9787,VALID,191,VALID,0,
2016-01-20, 09:20:04,VALID,919.095,VALID,0,VALID,80.2517,VALID,222.403,VALID,23.016,VALID,168,VALID,0.00078125,
2016-01-20, 09:21:04,VALID,919.102,VALID,0,VALID,77.5225,VALID,222.296,VALID,22.9965,VALID,215,VALID,0.0078125,
2016-01-20, 09:22:04,VALID,919.144,VALID,0,VALID,79.1082,VALID,222.726,VALID,22.9965,VALID,178,VALID,0,
2016-01-20, 09:23:04,VALID,919.174,VALID,0,VALID,80.1069,VALID,224.015,VALID,23.0959,VALID,178,VALID,0,
2016-01-20, 09:24:04,VALID,919.15,VALID,0,VALID,80.4423,VALID,226.486,VALID,23.1722,VALID,178,VALID,0,
2016-01-20, 09:25:04,VALID,919.173,VALID,0,VALID,80.4347,VALID,228.85,VALID,23.2502,VALID,177,VALID,0,
2016-01-20, 09:26:04,VALID,919.164,VALID,0,VALID,79.3369,VALID,230.784,VALID,23.2893,VALID,176,VALID,0,
2016-01-20, 09:27:04,VALID,919.169,VALID,0,VALID,79.032,VALID,232.825,VALID,23.3106,VALID,176,VALID,0,
2016-01-20, 09:28:04,VALID,919.134,VALID,0,VALID,77.9494,VALID,234.651,VALID,23.3088,VALID,176,VALID,0,
2016-01-20, 09:29:04,VALID,919.16,VALID,0,VALID,78.8109,VALID,235.726,VALID,23.3283,VALID,176,VALID,0,
2016-01-20, 09:30:04,VALID,919.174,VALID,0,VALID,79.0243,VALID,236.048,VALID,23.3674,VALID,176,VALID,0,
2016-01-20, 09:31:04,VALID,919.173,VALID,0,VALID,78.4145,VALID,236.478,VALID,23.3674,VALID,133,VALID,0,
2016-01-20, 09:32:04,VALID,919.184,VALID,0,VALID,79.7333,VALID,236.693,VALID,23.3496,VALID,132,VALID,0,
2016-01-20, 09:33:04,VALID,919.199,VALID,0,VALID,79.9544,VALID,237.123,VALID,23.3496,VALID,132,VALID,0,
2016-01-20, 09:34:04,VALID,919.207,VALID,0,VALID,80.7625,VALID,237.123,VALID,23.3869,VALID,140,VALID,0,
2016-01-20, 09:35:04,VALID,919.235,VALID,0,VALID,78.1324,VALID,236.371,VALID,23.3851,VALID,132,VALID,0,
2016-01-20, 09:36:04,VALID,919.204,VALID,0,VALID,77.4387,VALID,235.833,VALID,23.2893,VALID,153,VALID,0,
2016-01-20, 09:37:04,VALID,919.244,VALID,0,VALID,78.8719,VALID,235.941,VALID,23.2502,VALID,158,VALID,0,
2016-01-20, 09:38:04,VALID,919.206,VALID,0,VALID,79.0853,VALID,237.338,VALID,23.229,VALID,153,VALID,0,
2016-01-20, 09:39:04,VALID,919.229,VALID,0,VALID,79.8858,VALID,238.734,VALID,23.2893,VALID,167,VALID,0,
2016-01-20, 09:40:04,VALID,919.21,VALID,0,VALID,81.2275,VALID,240.668,VALID,23.3088,VALID,152,VALID,0,
2016-01-20, 09:41:04,VALID,919.189,VALID,0,VALID,80.8006,VALID,242.817,VALID,23.3283,VALID,156,VALID,0,
2016-01-20, 09:42:04,VALID,919.205,VALID,0,VALID,80.5795,VALID,244.536,VALID,23.3088,VALID,108,VALID,0,
2016-01-20, 09:43:04,VALID,919.189,VALID,0,VALID,80.5566,VALID,246.148,VALID,23.3088,VALID,163,VALID,0,
2016-01-20, 09:44:04,VALID,919.141,VALID,0,VALID,80.3889,VALID,247.115,VALID,23.3265,VALID,164,VALID,0,
2016-01-20, 09:45:04,VALID,919.13,VALID,0,VALID,78.8185,VALID,247.544,VALID,23.3461,VALID,178,VALID,0,
2016-01-20, 09:46:04,VALID,919.132,VALID,0,VALID,77.553,VALID,249.156,VALID,23.3478,VALID,172,VALID,0,
2016-01-20, 09:47:04,VALID,919.146,VALID,0,VALID,79.5199,VALID,253.131,VALID,23.2502,VALID,182,VALID,0,
2016-01-20, 09:48:04,VALID,919.126,VALID,0,VALID,80.0459,VALID,257.859,VALID,23.2893,VALID,197,VALID,0,
2016-01-20, 09:49:04,VALID,919.14,VALID,0,VALID,79.7943,VALID,264.95,VALID,23.3674,VALID,197,VALID,0,
2016-01-20, 09:50:04,VALID,919.136,VALID,0,VALID,79.0091,VALID,272.471,VALID,23.4064,VALID,175,VALID,0,
2016-01-20, 09:51:04,VALID,919.097,VALID,0,VALID,80.5338,VALID,279.562,VALID,23.3869,VALID,148,VALID,0,
2016-01-20, 09:52:04,VALID,919.101,VALID,0,VALID,79.253,VALID,285.256,VALID,23.3869,VALID,140,VALID,0.861328,
2016-01-20, 09:53:04,VALID,919.126,VALID,0,VALID,80.9149,VALID,285.901,VALID,23.4259,VALID,148,VALID,0.666016,
2016-01-20, 09:54:04,VALID,919.152,VALID,0,VALID,79.253,VALID,285.149,VALID,23.465,VALID,140,VALID,0.868359,
2016-01-20, 09:55:04,VALID,919.14,VALID,0,VALID,79.9468,VALID,282.355,VALID,23.4454,VALID,150,VALID,0.534375,
2016-01-20, 09:56:04,VALID,919.134,VALID,0,VALID,79.2454,VALID,280.207,VALID,23.4241,VALID,176,VALID,1.43086,
2016-01-20, 09:57:04,VALID,919.118,VALID,0,VALID,77.37,VALID,281.173,VALID,23.4259,VALID,175,VALID,1.60273,
2016-01-20, 09:58:04,VALID,919.105,VALID,0,VALID,76.3942,VALID,286.76,VALID,23.3478,VALID,128,VALID,1.11523,
2016-01-20, 09:59:04,VALID,919.115,VALID,0,VALID,79.4589,VALID,294.926,VALID,23.3869,VALID,169,VALID,0.651563,
2016-01-20, 10:00:04,VALID,919.094,VALID,0,VALID,79.2149,VALID,305.025,VALID,23.3851,VALID,156,VALID,1.09414,
2016-01-20, 10:01:04,VALID,919.061,VALID,0,VALID,78.384,VALID,315.77,VALID,23.4241,VALID,172,VALID,1.20469,
2016-01-20, 10:02:04,VALID,919.03,VALID,0,VALID,78.323,VALID,329.737,VALID,23.4454,VALID,169,VALID,1.40078,
2016-01-20, 10:03:04,VALID,918.994,VALID,0,VALID,78.4526,VALID,345.208,VALID,23.5235,VALID,169,VALID,1.11836,
2016-01-20, 10:04:04,VALID,918.993,VALID,0,VALID,79.1463,VALID,364.011,VALID,23.5626,VALID,165,VALID,1.37383,
2016-01-20, 10:05:04,VALID,918.956,VALID,0,VALID,77.6826,VALID,379.804,VALID,23.5803,VALID,176,VALID,1.8293,
2016-01-20, 10:06:04,VALID,918.941,VALID,0,VALID,76.3714,VALID,392.912,VALID,23.6406,VALID,158,VALID,1.32695,
2016-01-20, 10:07:04,VALID,918.92,VALID,0,VALID,77.6979,VALID,401.722,VALID,23.6406,VALID,121,VALID,1.54219,
2016-01-20, 10:08:04,VALID,918.917,VALID,0,VALID,76.4934,VALID,416.12,VALID,23.543,VALID,153,VALID,1.65977,
2016-01-20, 10:09:04,VALID,918.882,VALID,0,VALID,77.8122,VALID,439.757,VALID,23.6016,VALID,168,VALID,0.614844,
2016-01-20, 10:10:04,VALID,918.891,VALID,0,VALID,76.1046,VALID,547.198,VALID,23.7773,VALID,166,VALID,1.91328,
2016-01-20, 10:11:04,VALID,918.862,VALID,0,VALID,74.9458,VALID,516.47,VALID,23.8944,VALID,172,VALID,1.15664,
2016-01-20, 10:12:04,VALID,918.898,VALID,0,VALID,75.9902,VALID,490.576,VALID,24.1677,VALID,164,VALID,1.36406,
2016-01-20, 10:13:04,VALID,918.891,VALID,0,VALID,74.74,VALID,522.271,VALID,24.3026,VALID,187,VALID,1.01211,
2016-01-20, 10:14:04,VALID,918.918,VALID,0,VALID,74.1758,VALID,496.915,VALID,24.5778,VALID,103,VALID,1.2082,
2016-01-20, 10:15:04,VALID,918.917,VALID,0,VALID,73.8099,VALID,606.505,VALID,24.5954,VALID,122,VALID,1.24805,
2016-01-20, 10:16:04,VALID,918.926,VALID,0,VALID,73.5888,VALID,772.609,VALID,24.5954,VALID,141,VALID,0.742578,
2016-01-20, 10:17:04,VALID,918.903,VALID,0,VALID,71.7973,VALID,787.651,VALID,24.654,VALID,125,VALID,1.84375,
2016-01-20, 10:18:04,VALID,918.934,VALID,0,VALID,73.0247,VALID,934.093,VALID,24.7126,VALID,161,VALID,1.10938,
2016-01-20, 10:19:04,VALID,918.934,VALID,0,VALID,71.6067,VALID,912.82,VALID,24.9078,VALID,108,VALID,2.73516,
2016-01-20, 10:20:04,VALID,918.991,VALID,0,VALID,70.4022,VALID,934.416,VALID,25.1617,VALID,169,VALID,1.29375,
2016-01-20, 10:21:04,VALID,918.99,VALID,0,VALID,68.2829,VALID,1002.96,VALID,25.4937,VALID,138,VALID,0,
2016-01-20, 10:22:04,VALID,918.96,VALID,0,VALID,66.3847,VALID,991.682,VALID,25.5132,VALID,114,VALID,1.61914,
2016-01-20, 10:23:04,VALID,919.004,VALID,0,VALID,68.2829,VALID,974.061,VALID,25.4917,VALID,191,VALID,1.06562,
2016-01-20, 10:24:04,VALID,919,VALID,0,VALID,67.5358,VALID,852.331,VALID,25.687,VALID,220,VALID,0,
2016-01-20, 10:25:04,VALID,919.006,VALID,0,VALID,65.2107,VALID,728.773,VALID,25.689,VALID,134,VALID,1.91992,
2016-01-20, 10:26:04,VALID,918.971,VALID,0,VALID,66.1941,VALID,777.659,VALID,25.7085,VALID,223,VALID,0.473047,
2016-01-20, 10:27:04,VALID,918.961,VALID,0,VALID,64.0901,VALID,877.687,VALID,25.9604,VALID,181,VALID,1.85117,
2016-01-20, 10:28:04,VALID,918.95,VALID,0,VALID,65.6681,VALID,926.895,VALID,26.1948,VALID,206,VALID,0.776563,
2016-01-20, 10:29:04,VALID,918.962,VALID,0,VALID,65.9273,VALID,984.591,VALID,26.2534,VALID,92,VALID,1.88984,
2016-01-20, 10:30:04,VALID,918.943,VALID,0,VALID,64.3569,VALID,972.342,VALID,26.1362,VALID,133,VALID,0.0523437,
2016-01-20, 10:31:04,VALID,918.884,VALID,0,VALID,65.3784,VALID,950.639,VALID,26.2905,VALID,133,VALID,0,
2016-01-20, 10:32:04,VALID,918.892,VALID,0,VALID,67.6883,VALID,927.002,VALID,26.5269,VALID,152,VALID,0.0632813,
2016-01-20, 10:33:04,VALID,918.85,VALID,0,VALID,63.4573,VALID,902.183,VALID,26.5835,VALID,72,VALID,1.21836,
2016-01-20, 10:34:04,VALID,918.785,VALID,0,VALID,62.4739,VALID,884.456,VALID,26.4878,VALID,116,VALID,1.48281,
2016-01-20, 10:35:04,VALID,918.8,VALID,0,VALID,67.2309,VALID,869.521,VALID,26.4683,VALID,178,VALID,1.03789,
2016-01-20, 10:36:04,VALID,918.793,VALID,0,VALID,66.4305,VALID,856.628,VALID,26.6441,VALID,176,VALID,0.995313,
2016-01-20, 10:37:04,VALID,918.771,VALID,0,VALID,66.7125,VALID,850.504,VALID,26.8395,VALID,185,VALID,0.145313,
2016-01-20, 10:38:04,VALID,918.763,VALID,0,VALID,64.8219,VALID,842.876,VALID,26.8785,VALID,161,VALID,1.10898,
2016-01-20, 10:39:04,VALID,918.763,VALID,0,VALID,63.6784,VALID,841.157,VALID,26.9762,VALID,172,VALID,1.48398,
2016-01-20, 10:40:04,VALID,918.732,VALID,0,VALID,63.7927,VALID,839.545,VALID,26.9372,VALID,115,VALID,0.893359,
2016-01-20, 10:41:04,VALID,918.737,VALID,0,VALID,65.9502,VALID,792.701,VALID,26.9567,VALID,149,VALID,0.242188,
2016-01-20, 10:42:04,VALID,918.711,VALID,0,VALID,65.2183,VALID,815.156,VALID,27.1911,VALID,104,VALID,0.00195313,
2016-01-20, 10:43:04,VALID,918.708,VALID,0,VALID,63.2896,VALID,830.628,VALID,27.4061,VALID,218,VALID,0.580859,
2016-01-20, 10:44:04,VALID,918.744,VALID,0,VALID,60.6824,VALID,830.52,VALID,27.5428,VALID,198,VALID,0.997656,
2016-01-20, 10:45:04,VALID,918.737,VALID,0,VALID,60.9568,VALID,832.669,VALID,27.5819,VALID,183,VALID,0.888281,
2016-01-20, 10:46:04,VALID,918.734,VALID,0,VALID,62.1918,VALID,833.743,VALID,27.5819,VALID,193,VALID,0.701563,
2016-01-20, 10:47:04,VALID,918.723,VALID,0,VALID,60.6671,VALID,833.958,VALID,27.658,VALID,140,VALID,1.56562,
2016-01-20, 10:48:04,VALID,918.707,VALID,0,VALID,62.8779,VALID,844.487,VALID,27.5408,VALID,154,VALID,0.00195313,
2016-01-20, 10:49:04,VALID,918.721,VALID,0,VALID,61.3075,VALID,856.736,VALID,27.5819,VALID,158,VALID,0.534375,
2016-01-20, 10:50:04,VALID,918.681,VALID,0,VALID,63.6708,VALID,868.554,VALID,27.3279,VALID,81,VALID,2.81562,
2016-01-20, 10:51:04,VALID,918.628,VALID,0,VALID,60.751,VALID,876.827,VALID,27.2888,VALID,71,VALID,2.67344,
2016-01-20, 10:52:04,VALID,918.658,VALID,0,VALID,57.9989,VALID,886.067,VALID,27.1325,VALID,123,VALID,1.93359,
2016-01-20, 10:53:04,VALID,918.648,VALID,0,VALID,59.2339,VALID,890.15,VALID,27.0153,VALID,49,VALID,3.81094,
2016-01-20, 10:54:04,VALID,918.589,VALID,0,VALID,59.9658,VALID,866.728,VALID,27.0739,VALID,51,VALID,3.44844,
2016-01-20, 10:55:04,VALID,918.718,VALID,0,VALID,59.8286,VALID,920.233,VALID,26.9372,VALID,117,VALID,2.24531,
2016-01-20, 10:56:04,VALID,918.662,VALID,0,VALID,57.633,VALID,917.118,VALID,26.9587,VALID,142,VALID,1.47383,
2016-01-20, 10:57:04,VALID,918.646,VALID,0,VALID,59.0357,VALID,814.297,VALID,26.9742,VALID,144,VALID,2.22773,
2016-01-20, 10:58:04,VALID,918.642,VALID,0,VALID,56.7716,VALID,792.701,VALID,26.9958,VALID,148,VALID,2.89492,
2016-01-20, 10:59:04,VALID,918.58,VALID,0,VALID,58.9671,VALID,717.062,VALID,27.0348,VALID,76,VALID,1.79648,
2016-01-20, 11:00:04,VALID,918.614,VALID,0,VALID,59.7676,VALID,819.239,VALID,27.0328,VALID,99,VALID,2.36719,
2016-01-20, 11:01:04,VALID,918.653,VALID,0,VALID,60.934,VALID,841.049,VALID,27.0739,VALID,90,VALID,1.97461,
2016-01-20, 11:02:04,VALID,918.663,VALID,0,VALID,58.7308,VALID,616.82,VALID,26.9742,VALID,88,VALID,2.72148,
2016-01-20, 11:03:04,VALID,918.694,VALID,0,VALID,59.5389,VALID,581.794,VALID,26.8179,VALID,80,VALID,4.26133,
2016-01-20, 11:04:04,VALID,918.668,VALID,0,VALID,57.0308,VALID,586.629,VALID,26.5269,VALID,126,VALID,4.09961,
2016-01-20, 11:05:04,VALID,918.548,VALID,0,VALID,58.5631,VALID,569.653,VALID,26.3491,VALID,83,VALID,2.61523,
2016-01-20, 11:06:04,VALID,918.594,VALID,0,VALID,61.2923,VALID,502.18,VALID,26.3511,VALID,84,VALID,1.65586,
2016-01-20, 11:07:04,VALID,918.572,VALID,0,VALID,62.9694,VALID,647.118,VALID,26.3882,VALID,82,VALID,1.67344,
2016-01-20, 11:08:04,VALID,918.595,VALID,0,VALID,62.1461,VALID,354.019,VALID,26.3706,VALID,87,VALID,2.36055,
2016-01-20, 11:09:04,VALID,918.561,VALID,0,VALID,60.9111,VALID,630.787,VALID,26.3686,VALID,51,VALID,3.26172,
2016-01-20, 11:10:04,VALID,918.595,VALID,0,VALID,62.7941,VALID,615.423,VALID,26.4488,VALID,56,VALID,3.30273,
2016-01-20, 11:11:04,VALID,918.6,VALID,0,VALID,61.0559,VALID,523.023,VALID,26.5249,VALID,54,VALID,2.44492,
2016-01-20, 11:12:04,VALID,918.641,VALID,0,VALID,58.8909,VALID,486.279,VALID,26.564,VALID,40,VALID,2.6332,
2016-01-20, 11:13:04,VALID,918.646,VALID,0,VALID,59.5236,VALID,406.557,VALID,26.6616,VALID,36,VALID,0,
2016-01-20, 11:14:04,VALID,918.635,VALID,0,VALID,59.051,VALID,436.748,VALID,26.7223,VALID,95,VALID,2.33086,
2016-01-20, 11:15:04,VALID,918.593,VALID,0,VALID,59.8057,VALID,422.351,VALID,26.605,VALID,108,VALID,3.60313,
2016-01-20, 11:16:04,VALID,918.521,VALID,0,VALID,59.173,VALID,414.938,VALID,26.4097,VALID,73,VALID,3.07422,
2016-01-20, 11:17:04,VALID,918.54,VALID,0,VALID,58.2124,VALID,408.169,VALID,26.271,VALID,112,VALID,2.74961,
2016-01-20, 11:18:04,VALID,918.537,VALID,0,VALID,60.2555,VALID,401.615,VALID,26.1733,VALID,134,VALID,2.53047,
2016-01-20, 11:19:04,VALID,918.491,VALID,0,VALID,61.6201,VALID,374.647,VALID,26.1928,VALID,64,VALID,3.34219,
2016-01-20, 11:20:04,VALID,918.516,VALID,0,VALID,58.2886,VALID,381.846,VALID,26.1948,VALID,73,VALID,1.23125,
2016-01-20, 11:21:04,VALID,918.527,VALID,0,VALID,60.3775,VALID,373.573,VALID,26.1733,VALID,98,VALID,1.55156,
2016-01-20, 11:22:04,VALID,918.528,VALID,0,VALID,62.2833,VALID,370.779,VALID,26.1538,VALID,102,VALID,1.23711,
2016-01-20, 11:23:04,VALID,918.438,VALID,0,VALID,61.8869,VALID,371.746,VALID,26.1342,VALID,113,VALID,2.25039,
2016-01-20, 11:24:04,VALID,918.512,VALID,0,VALID,60.2097,VALID,370.242,VALID,26.1147,VALID,102,VALID,1.49961,
2016-01-20, 11:25:04,VALID,918.506,VALID,0,VALID,60.6214,VALID,364.763,VALID,26.1342,VALID,40,VALID,1.8418,